TIANQI 32

导读

TIANQI 32即天启星座32星,是中国北京国电高科科技有限公司研制的天启卫星系列成员,定位为低轨通信卫星,质量约50千克,运行于近地点843km、远地点855km,倾角44.9°的近地轨道。 它于2024年9月20日由快舟一号甲运载火箭,在西昌卫星发射中心发射升空,随后顺利进入预定轨道,是天启低轨物联网星座组网的重要组成部分,服务于天地互联通信需求。

Basic Information
目录编号:
61198
目录名称:
TIANQI 32
国际标识:
2024-170D
轨道中心:
EARTH
卫星名称:
TIANQI 32
卫星全名:
TIANQI 32
卫星状态:
在轨 (已飞行631 天)
发射日期:
2024-09-20 UTC
国别 :
中国 (CN)
星等 :
--
Orbit Information
数据来源 国际轨道数据 AOE轨道数据
星历时间 2026-06-13T03:36:01+0800
7小时前
查看轨道信息
2026-06-12T01:00:00+0800
1天前
查看轨道信息
半长轴 7274.846km 7274.846km
偏心率 0.0006856 0.0006814
轨道倾角 44.859° 44.858°
近地点辐角 42.597° 37.182°
升交点赤经 156.939° 161.884°
平近点角 317.539° 134.959°
近地点 891.721km 891.751km
远地点 901.697km 901.667km
周期 102.919分钟 102.919分钟
每日圈数 13.991592 13.991591
Detailed Information
使用方式:
暂无
2D Orbit Map
3D Orbit Map
Orbit Altitude Analysis Chart
Orbit Inclination Analysis Chart
Orbit Comprehensive Analysis Chart
View Comprehensive Chart